Precipitable_Water
0.29 0.28 0.28 0.33 0.33 0.30 0.30 0.29 0.30 0.34 0.36 0.34 0.28 0.32 0.37 0.39 0.36 0.34 0.42 0.50 0.49 0.60 0.67 0.75 0.81 0.84 0.84 0.90 0.87 0.91 1.03 1.10 1.15 1.17 1.17 1.19 1.26 1.31 1.38 1.49 1.54 1.55 1.55 1.60 1.66 1.70 1.72 1.75 1.75 1.80 1.85 1.87 1.92 1.96 2.00 1.94 2.04 1.98 1.90 1.83 1.78 1.82 1.81 1.77 1.86 2.00 1.99 1.87 1.95 1.87 1.89 1.79 1.70 1.72 1.76 1.80 1.79 1.79 1.79 1.80 1.82 1.82 1.84 1.85 1.85 1.86 1.88
0.30 0.30 0.32 0.33 0.29 0.28 0.28 0.31 0.32 0.34 0.35 0.34 0.36 0.38 0.45 0.46 0.45 0.45 0.50 0.53 0.56 0.66 0.69 0.73 0.81 0.87 0.91 0.95 1.00 1.00 1.03 1.07 1.12 1.13 1.16 1.20 1.25 1.30 1.36 1.39 1.48 1.56 1.58 1.58 1.59 1.65 1.71 1.74 1.74 1.77 1.79 1.86 1.88 1.91 1.90 1.90 1.96 2.05 1.92 1.80 1.89 1.95 1.90 1.88 1.90 2.00 2.02 1.99 1.99 1.92 1.93 1.85 1.75 1.74 1.74 1.75 1.74 1.73 1.76 1.78 1.82 1.86 1.86 1.86 1.83 1.79 1.78
0.28 0.28 0.27 0.30 0.29 0.30 0.29 0.34 0.37 0.38 0.38 0.35 0.34 0.38 0.42 0.43 0.42 0.45 0.44 0.45 0.54 0.73 0.82 0.82 0.89 0.93 0.98 1.02 0.99 0.97 1.02 1.09 1.13 1.13 1.14 1.20 1.22 1.28 1.32 1.43 1.48 1.52 1.56 1.58 1.61 1.61 1.62 1.71 1.73 1.79 1.79 1.83 1.89 1.90 1.92 1.96 2.03 2.10 2.00 1.96 2.03 1.94 1.88 1.94 1.95 1.93 1.90 1.85 1.94 1.98 1.98 1.93 1.92 1.88 1.80 1.75 1.70 1.67 1.66 1.65 1.66 1.73 1.76 1.75 1.77 1.78 1.77
0.29 0.35 0.35 0.35 0.35 0.35 0.34 0.34 0.36 0.37 0.39 0.39 0.40 0.38 0.43 0.42 0.43 0.43 0.45 0.46 0.57 0.76 0.86 0.88 0.90 0.89 0.87 0.90 0.98 1.01 1.05 1.11 1.15 1.16 1.19 1.21 1.24 1.28 1.32 1.45 1.53 1.55 1.54 1.58 1.63 1.66 1.79 2.10 2.09 1.93 1.92 1.97 1.99 1.93 1.90 1.88 1.99 2.12 2.02 1.95 1.98 1.98 1.87 1.88 1.85 1.81 1.78 1.86 1.94 1.93 1.91 1.89 1.85 1.84 1.83 1.79 1.73 1.69 1.67 1.65 1.64 1.63 1.60 1.64 1.70 1.73 1.73
0.31 0.34 0.36 0.35 0.34 0.32 0.30 0.35 0.40 0.42 0.44 0.45 0.47 0.46 0.49 0.49 0.45 0.43 0.43 0.53 0.68 0.73 0.76 0.72 0.78 0.80 0.81 0.87 0.98 1.02 1.08 1.13 1.16 1.20 1.20 1.24 1.29 1.31 1.35 1.44 1.48 1.51 1.59 1.57 1.63 1.73 1.79 1.90 2.04 2.04 2.09 2.02 2.00 1.95 1.90 1.87 1.95 1.93 1.84 1.80 1.88 1.93 1.95 1.85 1.75 1.65 1.70 1.76 1.77 1.74 1.81 1.88 1.92 1.90 1.85 1.77 1.73 1.71 1.68 1.72 1.73 1.68 1.65 1.64 1.63 1.67 1.69
0.31 0.32 0.33 0.35 0.30 0.25 0.28 0.43 0.49 0.46 0.43 0.45 0.43 0.46 0.50 0.51 0.54 0.54 0.61 0.64 0.72 0.74 0.74 0.69 0.71 0.76 0.80 0.91 1.02 1.12 1.14 1.13 1.18 1.22 1.21 1.27 1.31 1.35 1.40 1.44 1.45 1.52 1.61 1.62 1.62 1.71 1.79 1.84 1.81 1.90 1.99 1.95 1.99 2.06 1.96 1.90 1.88 1.85 1.79 1.76 1.77 1.83 1.92 1.87 1.80 1.80 1.89 1.90 1.89 1.92 1.93 1.90 1.91 1.89 1.86 1.84 1.89 1.93 1.91 1.88 1.80 1.76 1.74 1.72 1.72 1.69 1.68
0.30 0.34 0.34 0.26 0.22 0.26 0.42 0.45 0.46 0.47 0.49 0.50 0.49 0.57 0.55 0.62 0.65 0.68 0.66 0.68 0.70 0.74 0.75 0.75 0.77 0.82 0.90 1.00 1.05 1.12 1.20 1.23 1.25 1.25 1.25 1.29 1.35 1.37 1.41 1.43 1.47 1.50 1.56 1.57 1.64 1.66 1.75 1.83 1.89 1.93 1.87 1.86 1.89 1.90 1.91 1.90 1.93 1.90 1.89 1.89 1.90 1.97 2.02 2.05 2.05 2.00 1.99 1.96 1.95 1.96 1.96 1.96 1.96 1.97 1.95 1.95 1.95 1.97 1.98 1.92 1.88 1.87 1.86 1.82 1.79 1.78 1.77
0.32 0.30 0.31 0.24 0.28 0.42 0.42 0.44 0.48 0.51 0.51 0.50 0.49 0.52 0.60 0.66 0.67 0.67 0.64 0.67 0.67 0.71 0.72 0.77 0.83 0.84 0.93 1.01 1.11 1.18 1.23 1.26 1.29 1.30 1.30 1.33 1.37 1.39 1.45 1.45 1.43 1.45 1.46 1.52 1.53 1.54 1.67 1.78 1.79 1.81 1.81 1.85 1.81 1.84 1.93 1.92 1.92 1.94 1.95 1.92 1.93 1.97 1.98 2.00 2.00 2.01 2.00 1.98 1.96 1.96 1.96 1.98 1.97 1.96 1.96 1.95 1.94 1.99 2.02 2.00 1.98 1.96 1.94 1.92 1.90 1.89 1.90
0.26 0.27 0.26 0.26 0.31 0.33 0.39 0.41 0.46 0.53 0.49 0.49 0.46 0.40 0.52 0.63 0.64 0.65 0.64 0.64 0.70 0.74 0.77 0.77 0.81 0.87 0.89 0.84 0.97 1.18 1.23 1.24 1.34 1.39 1.38 1.41 1.39 1.45 1.49 1.50 1.47 1.48 1.49 1.50 1.55 1.65 1.67 1.64 1.74 1.82 1.88 1.91 1.86 1.86 1.86 1.88 1.88 1.88 1.88 1.85 1.86 1.87 1.87 1.92 1.97 2.00 1.99 1.97 1.95 1.94 1.93 1.88 1.87 1.89 1.91 1.95 1.98 2.03 2.01 2.00 1.96 1.93 1.90 1.90 1.94 1.94 1.95
0.31 0.27 0.24 0.25 0.26 0.26 0.37 0.43 0.53 0.57 0.57 0.55 0.59 0.51 0.52 0.66 0.70 0.72 0.70 0.64 0.67 0.68 0.72 0.76 0.80 0.82 0.71 0.70 0.86 1.13 1.25 1.27 1.33 1.38 1.43 1.48 1.48 1.46 1.45 1.48 1.47 1.45 1.45 1.49 1.56 1.60 1.61 1.61 1.69 1.76 1.81 1.83 1.81 1.78 1.80 1.89 1.91 1.91 1.90 1.87 1.87 1.89 1.92 1.95 1.97 1.98 1.99 1.98 1.94 1.93 1.91 1.86 1.86 1.89 1.92 1.95 1.96 2.01 1.97 1.96 1.97 2.02 2.04 2.01 2.01 2.04 2.00
0.31 0.29 0.26 0.25 0.24 0.29 0.40 0.42 0.48 0.52 0.55 0.56 0.56 0.43 0.44 0.67 0.74 0.77 0.71 0.65 0.65 0.65 0.68 0.71 0.77 0.68 0.56 0.66 0.87 1.11 1.20 1.20 1.26 1.29 1.35 1.50 1.48 1.46 1.42 1.42 1.40 1.39 1.40 1.42 1.47 1.54 1.57 1.60 1.70 1.77 1.78 1.78 1.77 1.75 1.78 1.83 1.83 1.82 1.80 1.83 1.85 1.86 1.91 1.95 1.97 1.98 1.97 1.93 1.91 1.89 1.86 1.86 1.89 1.91 1.96 1.98 2.01 2.02 2.00 2.01 2.04 2.09 2.10 2.08 2.07 2.09 2.06
0.31 0.26 0.21 0.20 0.23 0.31 0.47 0.52 0.53 0.59 0.61 0.56 0.46 0.31 0.38 0.64 0.74 0.76 0.73 0.64 0.59 0.61 0.67 0.69 0.67 0.62 0.54 0.65 0.92 1.16 1.22 1.27 1.30 1.28 1.31 1.41 1.42 1.45 1.44 1.44 1.44 1.41 1.43 1.41 1.37 1.39 1.44 1.51 1.62 1.67 1.71 1.70 1.69 1.70 1.71 1.75 1.72 1.75 1.81 1.86 1.93 1.96 1.97 1.97 1.98 1.97 1.94 1.90 1.89 1.88 1.87 1.94 1.96 1.94 2.01 2.00 1.98 1.97 1.98 2.01 2.00 2.06 2.06 2.07 2.04 2.06 2.02
0.33 0.30 0.27 0.26 0.28 0.43 0.55 0.57 0.60 0.58 0.58 0.50 0.34 0.29 0.51 0.71 0.75 0.71 0.70 0.64 0.63 0.67 0.69 0.71 0.60 0.73 0.82 0.90 1.03 1.14 1.22 1.25 1.28 1.31 1.37 1.38 1.36 1.35 1.38 1.42 1.44 1.42 1.44 1.44 1.39 1.38 1.40 1.44 1.50 1.55 1.57 1.57 1.58 1.60 1.64 1.63 1.64 1.70 1.77 1.83 1.85 1.87 1.90 1.92 1.92 1.91 1.91 1.89 1.85 1.84 1.87 1.89 1.93 1.95 1.97 1.92 1.89 1.89 1.89 1.92 1.92 1.89 1.90 2.04 2.05 2.02 2.01
0.34 0.33 0.28 0.29 0.43 0.56 0.65 0.70 0.71 0.70 0.53 0.36 0.36 0.59 0.73 0.71 0.67 0.70 0.68 0.65 0.72 0.77 0.76 0.78 0.79 0.85 0.94 1.04 1.09 1.09 1.14 1.18 1.22 1.27 1.34 1.35 1.34 1.35 1.38 1.39 1.39 1.34 1.31 1.34 1.36 1.39 1.43 1.43 1.43 1.44 1.44 1.41 1.42 1.47 1.50 1.50 1.59 1.68 1.71 1.73 1.74 1.75 1.76 1.78 1.81 1.83 1.88 1.92 1.93 1.92 1.93 1.94 1.92 1.91 1.92 1.91 1.86 1.87 1.88 1.86 1.87 1.92 2.04 2.05 1.92 1.90 1.95
0.42 0.39 0.34 0.31 0.27 0.50 0.65 0.66 0.66 0.70 0.49 0.51 0.65 0.71 0.73 0.71 0.69 0.65 0.68 0.70 0.74 0.77 0.76 0.84 0.87 0.92 0.97 1.01 1.04 1.07 1.11 1.15 1.18 1.22 1.30 1.29 1.28 1.29 1.32 1.30 1.32 1.27 1.22 1.22 1.22 1.23 1.26 1.28 1.32 1.35 1.36 1.33 1.35 1.37 1.37 1.42 1.50 1.56 1.61 1.62 1.61 1.61 1.62 1.64 1.68 1.70 1.73 1.76 1.79 1.82 1.81 1.81 1.78 1.75 1.79 1.82 1.85 1.87 1.85 1.80 1.88 1.93 1.92 1.87 1.82 1.83 1.86
0.40 0.39 0.38 0.42 0.53 0.62 0.74 0.66 0.55 0.65 0.64 0.69 0.76 0.74 0.65 0.71 0.70 0.70 0.68 0.73 0.76 0.79 0.78 0.81 0.87 0.92 0.96 0.99 1.02 1.08 1.11 1.18 1.23 1.26 1.28 1.26 1.30 1.31 1.33 1.30 1.26 1.27 1.24 1.24 1.24 1.24 1.20 1.15 1.14 1.16 1.16 1.16 1.19 1.22 1.25 1.36 1.43 1.47 1.48 1.50 1.51 1.50 1.49 1.50 1.53 1.57 1.60 1.64 1.68 1.70 1.71 1.71 1.69 1.66 1.65 1.66 1.69 1.74 1.77 1.77 1.73 1.69 1.71 1.82 1.89 1.85 1.78
0.48 0.44 0.47 0.57 0.64 0.70 0.78 0.76 0.76 0.76 0.79 0.81 0.79 0.76 0.72 0.69 0.71 0.76 0.69 0.71 0.77 0.82 0.83 0.85 0.89 0.90 0.97 1.01 1.06 1.05 1.07 1.13 1.17 1.23 1.26 1.25 1.24 1.24 1.25 1.27 1.28 1.28 1.26 1.23 1.21 1.20 1.22 1.19 1.15 1.13 1.13 1.07 1.02 1.00 1.07 1.15 1.18 1.22 1.28 1.33 1.34 1.35 1.37 1.38 1.39 1.41 1.43 1.45 1.47 1.51 1.55 1.58 1.54 1.54 1.53 1.55 1.52 1.53 1.55 1.58 1.61 1.60 1.63 1.67 1.70 1.71 1.67
0.59 0.58 0.58 0.63 0.67 0.74 0.79 0.83 0.82 0.77 0.79 0.79 0.78 0.76 0.73 0.75 0.73 0.76 0.74 0.77 0.78 0.84 0.89 0.83 0.89 0.91 0.97 0.99 1.02 1.05 1.08 1.10 1.14 1.17 1.18 1.18 1.15 1.15 1.23 1.28 1.28 1.31 1.32 1.31 1.25 1.20 1.19 1.20 1.20 1.21 1.20 1.17 1.10 1.08 1.08 1.07 1.07 1.04 1.01 1.03 1.06 1.09 1.13 1.17 1.20 1.23 1.23 1.24 1.28 1.31 1.35 1.38 1.38 1.39 1.40 1.42 1.42 1.43 1.47 1.49 1.48 1.47 1.48 1.51 1.53 1.52 1.47
0.50 0.46 0.60 0.65 0.67 0.74 0.74 0.74 0.81 0.80 0.78 0.81 0.82 0.79 0.78 0.79 0.82 0.82 0.82 0.80 0.81 0.86 0.89 0.89 0.89 0.94 1.01 0.99 1.01 1.05 1.07 1.09 1.12 1.13 1.15 1.16 1.17 1.17 1.18 1.25 1.28 1.30 1.31 1.30 1.31 1.27 1.22 1.22 1.21 1.24 1.25 1.26 1.25 1.23 1.20 1.16 1.14 1.13 1.10 1.07 1.03 0.98 0.96 0.97 0.99 1.00 0.99 0.98 0.99 1.03 1.06 1.09 1.13 1.16 1.19 1.20 1.21 1.23 1.26 1.27 1.30 1.35 1.35 1.34 1.34 1.35 1.34
0.52 0.51 0.63 0.69 0.71 0.77 0.81 0.78 0.73 0.74 0.78 0.81 0.84 0.82 0.85 0.85 0.87 0.82 0.82 0.88 0.87 0.92 0.89 0.94 0.94 0.97 1.04 1.03 1.02 1.05 1.09 1.11 1.12 1.13 1.14 1.16 1.17 1.20 1.21 1.22 1.23 1.23 1.24 1.22 1.21 1.18 1.18 1.20 1.19 1.19 1.22 1.23 1.23 1.23 1.25 1.24 1.21 1.18 1.14 1.11 1.09 1.07 1.03 0.97 0.91 0.87 0.85 0.84 0.82 0.83 0.85 0.85 0.85 0.88 0.92 0.94 0.95 0.98 1.00 1.03 1.02 1.02 1.04 1.04 1.04 1.07 1.10
0.57 0.61 0.71 0.76 0.73 0.75 0.77 0.78 0.78 0.81 0.84 0.86 0.86 0.89 0.88 0.89 0.83 0.85 0.87 0.92 0.92 0.94 0.94 0.96 0.95 0.96 1.05 1.07 1.10 1.12 1.14 1.12 1.14 1.15 1.17 1.21 1.22 1.21 1.20 1.21 1.22 1.19 1.21 1.21 1.20 1.19 1.18 1.22 1.23 1.25 1.24 1.24 1.22 1.19 1.18 1.21 1.21 1.15 1.13 1.13 1.12 1.11 1.09 1.04 0.97 0.93 0.88 0.83 0.80 0.78 0.77 0.78 0.79 0.81 0.80 0.81 0.81 0.82 0.87 0.89 0.89 0.88 0.85 0.84 0.84 0.86 0.87
0.53 0.60 0.70 0.74 0.59 0.63 0.74 0.79 0.84 0.87 0.95 0.92 0.89 0.89 0.89 0.88 0.84 0.84 0.85 0.90 0.97 0.98 1.00 0.99 0.99 0.95 0.97 1.02 1.07 1.10 1.10 1.15 1.17 1.17 1.18 1.20 1.19 1.23 1.26 1.25 1.19 1.17 1.19 1.18 1.17 1.16 1.18 1.22 1.23 1.23 1.22 1.22 1.21 1.17 1.15 1.16 1.15 1.13 1.13 1.11 1.07 1.04 1.03 0.98 0.94 0.93 0.93 0.91 0.88 0.83 0.79 0.77 0.76 0.79 0.84 0.84 0.82 0.78 0.77 0.81 0.80 0.79 0.76 0.74 0.77 0.78 0.75
0.55 0.65 0.77 0.82 0.80 0.79 0.79 0.81 0.88 0.91 0.92 0.90 0.85 0.85 0.86 0.89 0.89 0.89 0.85 0.84 0.88 0.93 0.99 1.03 0.99 0.98 0.97 0.98 1.07 1.10 1.13 1.18 1.19 1.19 1.18 1.16 1.17 1.22 1.26 1.23 1.22 1.22 1.21 1.21 1.18 1.16 1.17 1.19 1.17 1.15 1.14 1.16 1.16 1.15 1.15 1.15 1.13 1.05 0.98 0.96 0.96 0.96 0.96 0.94 0.94 0.91 0.89 0.89 0.89 0.86 0.82 0.78 0.75 0.75 0.76 0.80 0.82 0.81 0.80 0.79 0.79 0.79 0.79 0.79 0.81 0.81 0.78
0.71 0.75 0.77 0.81 0.81 0.75 0.82 0.86 0.86 0.90 0.96 0.92 0.88 0.89 0.91 0.88 0.88 0.89 0.87 0.87 0.86 0.89 0.95 1.00 1.04 1.04 1.05 1.08 1.09 1.08 1.13 1.16 1.13 1.13 1.17 1.20 1.23 1.26 1.31 1.31 1.30 1.26 1.25 1.24 1.21 1.20 1.20 1.17 1.14 1.12 1.08 1.05 1.04 1.06 1.04 1.02 0.99 0.95 0.92 0.88 0.86 0.88 0.88 0.87 0.85 0.83 0.82 0.81 0.82 0.81 0.79 0.78 0.76 0.73 0.73 0.71 0.72 0.78 0.75 0.69 0.71 0.73 0.74 0.74 0.74 0.75 0.76
0.67 0.74 0.80 0.89 0.90 0.90 0.92 0.92 0.91 0.92 0.93 0.88 0.84 0.84 0.85 0.86 0.88 0.92 0.89 0.88 0.93 0.94 0.96 0.99 1.05 1.09 1.08 1.11 1.08 1.10 1.11 1.10 1.16 1.18 1.22 1.24 1.28 1.30 1.33 1.30 1.32 1.35 1.31 1.30 1.27 1.24 1.20 1.17 1.14 1.11 1.07 1.05 1.02 1.04 1.03 0.98 0.92 0.86 0.84 0.84 0.80 0.77 0.77 0.76 0.78 0.77 0.74 0.72 0.73 0.74 0.70 0.68 0.69 0.69 0.67 0.65 0.63 0.64 0.70 0.69 0.65 0.66 0.64 0.63 0.63 0.65 0.68
0.80 0.84 0.87 0.91 0.95 0.97 0.99 0.94 0.91 0.90 0.91 0.90 0.88 0.88 0.89 0.88 0.89 0.87 0.88 0.90 0.94 1.01 1.00 0.98 1.01 1.08 1.10 1.08 1.10 1.13 1.11 1.09 1.15 1.23 1.25 1.28 1.33 1.33 1.32 1.33 1.36 1.37 1.35 1.30 1.26 1.23 1.19 1.16 1.11 1.04 0.98 0.99 0.98 0.89 0.86 0.82 0.82 0.82 0.80 0.77 0.76 0.75 0.73 0.72 0.70 0.69 0.66 0.63 0.61 0.68 0.74 0.75 0.68 0.66 0.65 0.67 0.65 0.64 0.64 0.65 0.66 0.64 0.67 0.66 0.63 0.60 0.62
0.88 0.90 0.89 0.90 0.88 0.90 0.94 0.83 0.81 0.92 0.91 0.92 0.92 0.91 0.91 0.91 0.88 0.88 0.91 0.92 0.96 0.98 0.90 0.93 1.02 1.06 1.06 1.08 1.11 1.11 1.08 1.14 1.20 1.23 1.27 1.32 1.33 1.33 1.37 1.39 1.36 1.35 1.35 1.30 1.25 1.19 1.14 1.07 1.00 0.92 0.85 0.83 0.80 0.79 0.79 0.78 0.73 0.74 0.78 0.78 0.75 0.75 0.74 0.70 0.64 0.62 0.61 0.58 0.56 0.62 0.68 0.68 0.67 0.65 0.67 0.70 0.70 0.68 0.67 0.66 0.64 0.61 0.60 0.64 0.66 0.66 0.63
0.86 0.90 0.87 0.77 0.79 0.82 0.89 0.94 0.93 0.92 0.92 0.92 0.94 0.91 0.92 0.92 0.89 0.86 0.85 0.89 0.94 0.96 0.95 0.99 1.01 1.02 1.04 1.09 1.09 1.10 1.14 1.16 1.15 1.17 1.18 1.21 1.29 1.32 1.36 1.35 1.31 1.29 1.26 1.20 1.14 1.06 0.94 0.87 0.82 0.77 0.73 0.70 0.69 0.67 0.67 0.67 0.69 0.68 0.67 0.68 0.69 0.68 0.67 0.68 0.67 0.65 0.65 0.67 0.62 0.56 0.56 0.59 0.61 0.68 0.70 0.71 0.73 0.71 0.73 0.73 0.70 0.67 0.65 0.66 0.68 0.69 0.68
0.79 0.82 0.84 0.86 0.90 0.97 1.01 1.01 0.94 0.90 0.89 0.95 0.97 0.96 0.93 0.86 0.84 0.84 0.85 0.91 0.97 1.00 1.00 1.05 1.09 1.09 1.08 1.13 1.12 1.09 1.14 1.16 1.16 1.17 1.17 1.24 1.28 1.30 1.30 1.27 1.26 1.24 1.17 1.08 0.98 0.87 0.80 0.71 0.64 0.58 0.57 0.59 0.60 0.61 0.61 0.58 0.59 0.66 0.65 0.64 0.65 0.63 0.63 0.65 0.64 0.66 0.64 0.66 0.70 0.68 0.68 0.70 0.71 0.70 0.69 0.69 0.68 0.69 0.75 0.75 0.72 0.72 0.69 0.69 0.70 0.70 0.71
0.79 0.81 0.81 0.85 0.96 0.97 0.94 0.91 0.88 0.87 0.88 0.90 0.91 0.90 0.90 0.84 0.80 0.84 0.88 0.92 0.97 0.99 1.03 1.07 1.09 1.08 1.10 1.09 1.08 1.06 1.10 1.12 1.14 1.16 1.18 1.17 1.16 1.16 1.14 1.11 1.06 1.00 0.94 0.87 0.82 0.77 0.69 0.61 0.53 0.49 0.48 0.52 0.50 0.50 0.55 0.56 0.53 0.55 0.60 0.58 0.56 0.52 0.48 0.50 0.55 0.57 0.56 0.58 0.62 0.67 0.69 0.71 0.73 0.76 0.76 0.70 0.66 0.68 0.68 0.71 0.75 0.73 0.73 0.74 0.74 0.69 0.67
0.80 0.83 0.85 0.90 0.94 0.94 0.91 0.93 0.92 0.88 0.87 0.87 0.87 0.85 0.86 0.85 0.83 0.87 0.91 0.94 0.96 0.99 1.04 1.06 1.07 1.08 1.09 1.08 1.09 1.10 1.12 1.15 1.15 1.11 1.04 1.01 0.97 0.96 0.97 0.96 0.86 0.78 0.73 0.69 0.66 0.61 0.55 0.51 0.49 0.48 0.51 0.52 0.48 0.45 0.49 0.53 0.53 0.52 0.53 0.55 0.53 0.47 0.46 0.48 0.43 0.45 0.48 0.52 0.55 0.57 0.57 0.64 0.70 0.74 0.74 0.72 0.71 0.72 0.74 0.76 0.79 0.78 0.75 0.76 0.77 0.76 0.75
0.78 0.80 0.83 0.85 0.90 0.91 0.95 0.98 0.91 0.87 0.85 0.88 0.84 0.80 0.82 0.81 0.80 0.88 0.93 0.93 0.96 0.98 1.01 1.02 1.02 1.04 1.07 1.10 1.07 1.07 1.07 1.04 1.04 1.00 0.97 0.94 0.91 0.91 0.91 0.88 0.82 0.76 0.68 0.62 0.60 0.54 0.52 0.49 0.45 0.47 0.54 0.55 0.52 0.47 0.49 0.52 0.51 0.50 0.51 0.51 0.48 0.47 0.50 0.47 0.41 0.41 0.48 0.54 0.60 0.61 0.63 0.64 0.66 0.68 0.67 0.68 0.71 0.71 0.72 0.72 0.71 0.73 0.76 0.78 0.80 0.81 0.81
0.75 0.73 0.77 0.81 0.87 0.90 0.93 0.96 0.92 0.87 0.85 0.85 0.85 0.85 0.86 0.87 0.90 0.95 0.98 0.97 0.99 0.99 1.00 0.99 1.02 1.04 1.04 1.05 1.04 1.02 0.98 0.98 0.96 0.88 0.79 0.76 0.78 0.82 0.82 0.78 0.74 0.70 0.60 0.56 0.57 0.59 0.56 0.52 0.50 0.54 0.56 0.54 0.52 0.49 0.46 0.49 0.50 0.48 0.48 0.49 0.50 0.51 0.50 0.44 0.42 0.48 0.53 0.57 0.60 0.63 0.64 0.64 0.66 0.64 0.63 0.67 0.68 0.68 0.68 0.68 0.68 0.71 0.74 0.76 0.79 0.83 0.83
0.79 0.75 0.79 0.84 0.85 0.86 0.87 0.92 0.96 0.90 0.88 0.91 0.91 0.89 0.88 0.90 0.90 0.96 1.01 1.00 0.97 0.96 0.95 0.98 1.03 1.01 1.01 1.00 0.95 0.92 0.96 0.93 0.82 0.69 0.63 0.60 0.60 0.62 0.66 0.66 0.61 0.55 0.59 0.61 0.60 0.58 0.58 0.54 0.55 0.55 0.58 0.59 0.57 0.54 0.46 0.43 0.45 0.43 0.42 0.44 0.47 0.48 0.51 0.48 0.49 0.49 0.51 0.55 0.58 0.62 0.62 0.60 0.59 0.61 0.60 0.58 0.60 0.63 0.65 0.63 0.63 0.65 0.70 0.74 0.76 0.80 0.82
0.90 0.93 0.92 0.93 0.93 0.97 1.00 1.00 0.97 0.92 0.88 0.87 0.90 0.91 0.93 0.95 0.94 0.97 1.02 1.00 0.96 0.97 0.99 1.02 1.02 0.98 0.96 0.93 0.92 0.91 0.90 0.80 0.67 0.59 0.57 0.55 0.54 0.55 0.55 0.53 0.55 0.57 0.57 0.59 0.60 0.59 0.57 0.56 0.54 0.51 0.50 0.57 0.54 0.53 0.47 0.36 0.35 0.37 0.42 0.49 0.52 0.54 0.55 0.54 0.54 0.52 0.54 0.55 0.52 0.56 0.56 0.54 0.53 0.54 0.56 0.56 0.55 0.56 0.53 0.52 0.59 0.63 0.66 0.72 0.77 0.80 0.81
0.90 0.88 0.88 0.89 0.94 0.98 0.98 1.00 1.02 0.98 0.92 0.89 0.92 0.94 0.96 0.97 0.98 0.99 0.98 1.00 1.05 1.04 1.01 1.00 0.98 0.94 0.89 0.85 0.82 0.79 0.71 0.65 0.60 0.56 0.55 0.56 0.58 0.59 0.58 0.54 0.53 0.53 0.53 0.56 0.60 0.58 0.58 0.54 0.52 0.49 0.51 0.54 0.50 0.49 0.44 0.36 0.37 0.45 0.50 0.52 0.51 0.52 0.53 0.51 0.55 0.57 0.59 0.56 0.54 0.49 0.50 0.55 0.55 0.49 0.47 0.49 0.51 0.54 0.56 0.58 0.57 0.59 0.61 0.65 0.69 0.71 0.73
0.91 0.87 0.87 0.87 0.88 0.91 0.94 0.99 1.04 1.03 0.97 0.94 0.97 0.99 0.99 1.01 1.01 1.01 1.01 1.04 1.06 1.05 1.02 0.99 0.96 0.91 0.86 0.82 0.76 0.72 0.71 0.68 0.67 0.65 0.65 0.64 0.63 0.57 0.57 0.56 0.53 0.55 0.51 0.49 0.58 0.61 0.57 0.54 0.52 0.53 0.50 0.51 0.51 0.47 0.42 0.40 0.44 0.51 0.52 0.52 0.50 0.49 0.48 0.52 0.55 0.53 0.55 0.54 0.51 0.54 0.56 0.53 0.50 0.51 0.53 0.52 0.57 0.57 0.58 0.60 0.61 0.62 0.62 0.65 0.68 0.70 0.75
0.90 0.89 0.88 0.87 0.87 0.88 0.90 0.98 1.07 1.06 1.03 0.98 0.99 0.99 1.00 1.01 1.02 1.00 0.99 1.02 1.04 1.04 1.02 0.98 0.94 0.92 0.83 0.75 0.72 0.72 0.72 0.73 0.72 0.68 0.63 0.63 0.59 0.58 0.58 0.54 0.55 0.58 0.51 0.50 0.58 0.59 0.58 0.57 0.54 0.51 0.47 0.44 0.48 0.46 0.41 0.40 0.47 0.52 0.53 0.51 0.49 0.51 0.54 0.53 0.53 0.54 0.56 0.53 0.54 0.54 0.53 0.52 0.53 0.54 0.55 0.55 0.56 0.56 0.58 0.60 0.60 0.60 0.60 0.63 0.67 0.71 0.74
0.88 0.91 0.93 0.94 0.93 0.94 0.96 1.01 1.05 1.07 1.06 1.00 0.97 0.97 0.99 1.00 1.02 1.01 0.98 0.99 1.01 1.02 0.99 0.94 0.91 0.79 0.71 0.74 0.71 0.73 0.73 0.73 0.70 0.64 0.59 0.58 0.58 0.54 0.51 0.52 0.53 0.58 0.57 0.59 0.57 0.54 0.55 0.52 0.50 0.49 0.46 0.45 0.49 0.45 0.42 0.46 0.52 0.51 0.51 0.50 0.52 0.54 0.52 0.52 0.52 0.53 0.53 0.54 0.54 0.54 0.53 0.53 0.53 0.55 0.56 0.56 0.57 0.59 0.59 0.60 0.60 0.59 0.58 0.60 0.62 0.66 0.68
0.85 0.88 0.93 0.98 0.97 0.98 0.99 0.99 1.00 1.04 1.07 1.07 1.01 0.97 1.00 0.99 0.99 0.99 0.98 0.96 0.97 0.97 0.94 0.88 0.79 0.74 0.76 0.75 0.72 0.70 0.71 0.71 0.68 0.62 0.56 0.57 0.54 0.50 0.50 0.54 0.57 0.61 0.64 0.63 0.62 0.60 0.56 0.50 0.45 0.47 0.49 0.49 0.50 0.47 0.42 0.50 0.52 0.52 0.51 0.52 0.50 0.51 0.51 0.52 0.51 0.50 0.51 0.52 0.52 0.53 0.53 0.53 0.53 0.54 0.54 0.56 0.56 0.57 0.58 0.59 0.60 0.60 0.59 0.60 0.61 0.62 0.64
0.92 0.94 0.96 0.99 1.00 1.01 1.00 0.97 0.98 1.03 1.04 1.06 1.08 1.03 1.01 0.99 1.00 0.98 0.95 0.92 0.94 0.92 0.88 0.83 0.79 0.80 0.79 0.77 0.75 0.73 0.73 0.72 0.68 0.62 0.59 0.54 0.52 0.49 0.45 0.46 0.55 0.59 0.61 0.61 0.59 0.56 0.50 0.45 0.47 0.48 0.48 0.48 0.44 0.43 0.44 0.49 0.51 0.51 0.51 0.48 0.46 0.49 0.50 0.51 0.52 0.52 0.52 0.51 0.50 0.51 0.51 0.52 0.53 0.53 0.53 0.53 0.55 0.56 0.57 0.59 0.61 0.61 0.61 0.60 0.61 0.62 0.63
0.99 1.03 1.01 1.01 1.01 0.99 1.00 1.00 1.01 1.04 1.03 1.05 1.08 1.04 0.99 0.98 0.97 0.96 0.96 0.95 0.94 0.89 0.86 0.83 0.83 0.81 0.81 0.80 0.78 0.76 0.73 0.71 0.68 0.67 0.61 0.52 0.47 0.48 0.47 0.50 0.60 0.60 0.60 0.55 0.53 0.49 0.47 0.44 0.48 0.48 0.48 0.48 0.41 0.43 0.49 0.51 0.53 0.53 0.51 0.51 0.52 0.54 0.52 0.52 0.51 0.52 0.52 0.52 0.51 0.50 0.51 0.53 0.53 0.52 0.52 0.51 0.51 0.54 0.55 0.57 0.58 0.60 0.61 0.61 0.61 0.62 0.64
0.99 1.01 1.01 1.01 1.00 0.96 0.95 0.97 0.98 1.00 1.01 1.03 1.04 0.98 0.98 0.97 0.97 0.99 0.96 0.94 0.93 0.89 0.86 0.83 0.83 0.83 0.81 0.79 0.76 0.73 0.71 0.72 0.70 0.65 0.61 0.59 0.56 0.53 0.48 0.50 0.56 0.58 0.58 0.56 0.53 0.50 0.51 0.49 0.50 0.49 0.46 0.43 0.43 0.48 0.50 0.51 0.53 0.52 0.51 0.51 0.52 0.52 0.53 0.52 0.52 0.52 0.51 0.50 0.50 0.50 0.50 0.51 0.50 0.50 0.50 0.50 0.50 0.51 0.52 0.52 0.53 0.55 0.57 0.58 0.59 0.62 0.66
0.97 0.99 1.01 1.01 1.01 1.01 1.00 1.00 1.00 1.01 0.98 1.00 1.02 0.96 0.95 0.96 0.96 0.95 0.92 0.92 0.91 0.89 0.86 0.83 0.83 0.82 0.81 0.79 0.76 0.72 0.71 0.71 0.67 0.65 0.58 0.52 0.51 0.55 0.56 0.56 0.57 0.59 0.59 0.55 0.53 0.52 0.51 0.54 0.53 0.51 0.50 0.44 0.44 0.47 0.50 0.51 0.53 0.50 0.50 0.50 0.51 0.52 0.53 0.51 0.51 0.50 0.49 0.49 0.49 0.49 0.50 0.50 0.49 0.48 0.47 0.46 0.45 0.46 0.48 0.48 0.49 0.49 0.51 0.53 0.54 0.54 0.56
0.96 0.97 0.98 1.00 1.02 1.02 1.01 1.01 0.99 0.97 0.99 1.03 1.02 0.97 0.95 0.92 0.93 0.96 0.93 0.92 0.91 0.90 0.88 0.85 0.84 0.83 0.82 0.81 0.78 0.74 0.74 0.73 0.71 0.65 0.50 0.43 0.41 0.43 0.53 0.55 0.55 0.54 0.54 0.49 0.50 0.51 0.53 0.56 0.55 0.53 0.48 0.41 0.43 0.48 0.51 0.53 0.53 0.52 0.52 0.52 0.50 0.49 0.51 0.50 0.49 0.48 0.47 0.46 0.46 0.47 0.48 0.49 0.48 0.47 0.46 0.45 0.45 0.45 0.45 0.45 0.45 0.46 0.48 0.48 0.49 0.49 0.50
0.96 0.96 0.97 0.98 0.98 1.00 1.04 1.07 1.09 1.10 1.09 1.04 1.02 1.01 1.02 1.00 0.96 0.96 0.96 0.94 0.92 0.93 0.91 0.89 0.88 0.86 0.85 0.83 0.83 0.82 0.81 0.79 0.73 0.62 0.56 0.49 0.43 0.48 0.56 0.54 0.52 0.51 0.50 0.49 0.51 0.50 0.52 0.54 0.52 0.51 0.46 0.39 0.45 0.49 0.53 0.53 0.53 0.51 0.53 0.52 0.50 0.53 0.52 0.50 0.49 0.46 0.45 0.44 0.42 0.43 0.45 0.47 0.47 0.45 0.45 0.46 0.47 0.46 0.46 0.47 0.47 0.47 0.48 0.49 0.49 0.49 0.50
0.94 0.93 0.95 0.96 0.98 1.02 1.05 1.06 1.07 1.05 1.05 1.04 0.98 0.96 1.02 1.04 1.01 0.97 0.96 0.98 0.98 0.97 0.96 0.95 0.93 0.92 0.90 0.87 0.83 0.79 0.74 0.68 0.64 0.60 0.58 0.58 0.58 0.57 0.57 0.57 0.53 0.47 0.46 0.47 0.49 0.50 0.51 0.51 0.51 0.49 0.44 0.45 0.48 0.51 0.53 0.53 0.53 0.51 0.52 0.50 0.54 0.51 0.50 0.49 0.48 0.48 0.47 0.44 0.42 0.44 0.46 0.47 0.47 0.45 0.47 0.49 0.48 0.47 0.45 0.43 0.42 0.44 0.47 0.49 0.50 0.49 0.48
1.00 0.98 1.00 1.00 0.99 0.99 1.03 1.09 1.06 1.01 0.98 0.95 0.96 0.99 1.05 1.06 1.02 1.04 1.05 1.05 1.03 1.02 1.00 0.98 0.96 0.95 0.93 0.91 0.88 0.81 0.73 0.63 0.53 0.55 0.59 0.57 0.58 0.58 0.57 0.55 0.53 0.51 0.50 0.48 0.47 0.49 0.49 0.45 0.46 0.44 0.44 0.46 0.51 0.53 0.54 0.54 0.54 0.52 0.51 0.51 0.53 0.49 0.48 0.49 0.47 0.48 0.46 0.47 0.46 0.48 0.46 0.45 0.45 0.44 0.44 0.44 0.47 0.47 0.45 0.42 0.39 0.39 0.45 0.49 0.49 0.48 0.48
1.06 1.04 1.02 1.00 1.01 0.99 1.01 1.06 1.07 1.03 0.99 1.03 1.01 1.02 1.05 1.06 1.04 1.06 1.07 1.06 1.04 1.00 0.98 0.98 0.97 0.96 0.94 0.90 0.84 0.78 0.75 0.72 0.61 0.53 0.57 0.55 0.54 0.53 0.54 0.55 0.55 0.53 0.50 0.49 0.47 0.49 0.48 0.44 0.43 0.44 0.48 0.52 0.54 0.55 0.56 0.55 0.55 0.53 0.53 0.53 0.51 0.50 0.48 0.47 0.46 0.46 0.48 0.46 0.45 0.47 0.44 0.42 0.42 0.40 0.40 0.42 0.43 0.43 0.43 0.41 0.41 0.41 0.44 0.49 0.49 0.50 0.50
1.04 1.04 1.02 1.00 0.97 0.98 1.06 1.12 1.07 1.07 1.09 1.08 1.05 1.04 1.05 1.07 1.05 1.07 1.07 1.03 1.00 0.99 0.98 0.97 0.96 0.94 0.90 0.85 0.79 0.75 0.72 0.68 0.65 0.61 0.57 0.54 0.53 0.53 0.52 0.53 0.53 0.52 0.50 0.47 0.47 0.45 0.46 0.43 0.45 0.49 0.53 0.54 0.53 0.54 0.56 0.56 0.52 0.50 0.49 0.50 0.50 0.48 0.46 0.46 0.45 0.42 0.45 0.47 0.46 0.44 0.42 0.43 0.42 0.41 0.44 0.43 0.42 0.40 0.40 0.42 0.42 0.43 0.44 0.47 0.47 0.46 0.46
0.99 0.98 0.98 0.97 0.97 1.04 1.15 1.13 1.07 1.10 1.10 1.08 1.04 1.03 1.05 1.06 1.09 1.06 1.04 1.01 1.00 0.96 0.94 0.94 0.93 0.88 0.83 0.78 0.74 0.72 0.68 0.65 0.62 0.61 0.57 0.54 0.54 0.54 0.52 0.52 0.52 0.51 0.50 0.48 0.47 0.43 0.43 0.44 0.47 0.51 0.53 0.54 0.56 0.56 0.54 0.52 0.50 0.47 0.45 0.45 0.49 0.49 0.48 0.46 0.46 0.44 0.46 0.44 0.43 0.42 0.42 0.44 0.44 0.42 0.45 0.43 0.43 0.43 0.42 0.41 0.40 0.43 0.43 0.44 0.45 0.46 0.46
1.02 1.04 1.04 1.04 1.06 1.13 1.14 1.11 1.10 1.08 1.06 1.04 1.01 1.00 1.06 1.09 1.05 1.03 1.04 1.02 0.98 0.94 0.91 0.86 0.81 0.81 0.78 0.72 0.68 0.67 0.63 0.63 0.61 0.60 0.58 0.56 0.55 0.54 0.51 0.49 0.47 0.47 0.51 0.50 0.47 0.44 0.44 0.47 0.50 0.52 0.54 0.54 0.54 0.51 0.50 0.51 0.50 0.47 0.46 0.47 0.48 0.50 0.49 0.46 0.46 0.46 0.44 0.43 0.39 0.47 0.46 0.46 0.46 0.46 0.45 0.45 0.46 0.45 0.45 0.44 0.44 0.45 0.46 0.46 0.47 0.48 0.47
Wind_Speed
10 11 13 14 13 12 11 10 8 8 8 8 10 11 9 7 8 10 10 9 10 11 12 12 12 13 13 14 15 14 12 12 11 11 10 9 9 9 10 11 12 13 14 15 17 19 20 22 24 27 29 29 28 26 25 24 23 21 20 21 21 20 20 20 19 17 16 17 16 17 17 17 17 17 17 17 17 16 16 15 15 15 15 15 15 15 15
10 11 12 13 12 11 12 11 9 8 8 9 10 10 7 6 7 9 9 9 10 11 12 12 12 13 12 13 13 13 12 12 11 10 10 9 9 9 10 10 11 13 14 15 16 18 21 24 25 26 27 29 29 27 25 24 24 23 22 22 22 21 21 21 20 18 17 17 18 18 18 18 18 18 18 18 18 18 17 17 17 17 16 16 17 16 16
9 10 10 11 11 11 11 10 8 8 9 9 9 9 8 8 8 9 9 10 10 11 10 10 12 12 12 12 12 11 12 12 11 10 9 10 10 9 9 10 11 12 13 14 14 15 18 24 29 29 26 27 28 27 27 26 24 23 23 22 22 22 22 21 20 19 19 19 19 19 19 19 19 19 18 18 19 19 19 19 19 19 18 18 17 17 17
9 10 11 11 11 11 11 9 8 7 8 7 7 8 9 9 9 10 10 10 10 10 10 10 12 11 11 12 12 11 12 12 11 10 9 9 9 9 9 9 10 10 12 13 13 12 12 12 21 26 25 24 25 26 27 27 25 23 22 23 22 21 21 22 21 20 19 19 20 20 20 21 20 20 19 19 20 20 20 20 20 20 20 19 19 18 18
10 10 12 12 12 10 9 9 8 7 7 7 7 9 8 8 9 9 9 9 10 11 11 11 12 12 11 12 11 11 11 11 10 9 9 9 8 8 9 9 9 9 11 11 12 13 12 7 10 17 18 20 21 23 25 27 26 23 22 22 21 20 21 21 21 20 20 20 20 21 21 21 21 21 20 20 20 21 21 22 22 22 21 21 20 20 19
10 10 11 11 11 9 8 9 9 8 7 7 7 7 7 7 8 8 7 9 10 11 11 11 11 11 11 11 10 10 10 10 10 9 8 8 8 8 9 9 9 9 9 9 10 12 12 10 9 11 13 15 17 19 22 24 24 23 23 22 21 20 20 20 20 20 20 20 20 21 21 22 22 21 21 21 20 21 21 22 22 22 22 22 22 22 21
10 11 9 8 9 8 8 9 8 6 6 6 5 6 7 7 8 7 8 9 10 10 11 10 10 9 10 10 9 9 9 9 9 9 8 7 7 8 9 9 9 9 8 7 8 9 9 9 9 10 11 13 15 16 19 21 22 22 23 23 21 20 20 20 19 19 20 21 21 21 22 22 22 22 22 21 21 21 22 22 22 23 23 23 23 23 23
10 10 9 7 9 10 8 8 8 5 5 6 5 6 8 8 9 8 8 8 9 10 9 10 9 8 8 8 8 8 8 8 8 8 8 7 6 6 7 8 8 7 7 6 6 6 6 6 6 7 8 11 13 14 15 18 20 20 22 22 21 20 20 20 20 20 20 21 21 21 22 22 22 22 22 22 23 23 23 23 23 23 23 24 24 24 24
9 10 11 11 12 11 9 8 8 6 5 6 6 6 8 9 9 8 8 8 9 9 9 9 9 8 7 8 8 7 7 7 8 8 8 7 6 5 5 6 6 6 6 6 5 4 5 6 6 6 6 8 10 11 13 15 17 18 19 20 20 20 19 19 19 19 20 20 21 21 22 22 22 22 22 22 23 23 23 23 23 23 24 24 24 25 25
8 8 10 11 11 10 9 9 8 8 6 6 6 6 8 10 8 7 7 8 9 9 9 9 9 8 7 8 8 8 7 7 8 8 7 7 7 7 5 5 5 5 4 5 5 4 4 5 6 6 6 7 7 8 10 11 13 15 16 17 18 18 18 17 17 18 18 18 18 19 19 20 20 20 21 22 22 23 23 23 24 24 24 24 23 23 23
9 9 9 10 10 10 10 9 8 7 6 5 5 6 8 10 8 7 7 8 9 9 9 8 8 8 7 8 9 9 8 7 7 7 6 6 7 8 7 5 5 5 5 5 5 4 3 3 4 5 6 6 7 8 8 9 9 10 11 12 13 14 14 15 16 16 16 17 17 17 17 18 18 19 20 20 21 21 22 22 22 22 22 21 21 21 21
9 9 10 11 10 10 10 9 7 6 6 6 7 8 9 9 8 7 7 7 8 9 8 7 8 8 8 9 10 9 8 8 8 8 7 6 6 7 8 7 6 7 6 5 5 4 3 3 4 4 5 6 6 6 8 8 8 8 9 9 10 10 11 11 12 13 14 14 15 15 16 16 16 16 17 18 18 18 19 19 20 20 19 18 16 16 17
10 10 11 11 10 10 10 8 7 8 8 8 8 9 10 9 8 8 8 7 8 8 7 7 8 8 8 8 9 9 8 8 9 8 8 7 6 6 7 8 8 7 7 6 5 4 4 4 4 5 5 6 6 5 5 6 6 7 8 8 8 8 8 8 8 9 10 10 11 12 12 13 13 14 13 13 14 14 15 15 16 16 15 14 12 12 13
10 10 11 10 9 10 10 8 7 8 9 9 9 9 9 9 8 8 8 7 7 7 7 7 7 6 6 7 9 9 9 9 9 9 9 10 8 7 7 8 8 7 7 6 5 5 5 5 5 5 6 6 6 6 5 5 4 5 6 7 6 6 5 4 4 6 6 6 7 7 8 8 9 9 9 9 9 10 10 12 13 12 11 11 10 10 11
10 10 11 10 9 11 11 8 8 9 9 9 9 8 7 8 8 8 8 7 7 7 6 6 5 5 6 7 8 8 8 9 9 9 10 11 10 8 8 8 8 8 8 7 6 5 5 5 5 5 5 5 5 5 5 5 4 4 5 5 4 4 4 3 3 4 4 4 4 5 6 6 6 6 7 7 7 7 8 9 10 10 10 10 9 10 10
10 10 10 9 9 10 9 8 8 9 9 9 8 7 7 8 8 8 8 7 7 7 6 5 4 5 6 6 7 7 7 8 7 8 10 11 11 10 9 8 8 8 8 7 6 6 5 5 5 5 5 4 4 3 3 3 4 4 4 4 4 4 4 4 4 4 4 5 5 5 6 6 6 6 6 7 7 7 8 9 9 9 10 9 9 9 8
11 11 11 11 11 10 7 6 7 7 8 8 7 7 7 8 8 8 8 7 7 6 5 4 4 5 6 6 6 7 7 7 6 7 8 10 10 10 10 10 10 9 8 8 7 7 6 5 4 4 4 4 4 3 3 3 3 3 3 3 3 3 3 3 3 4 4 4 5 5 5 6 5 5 6 6 6 6 7 7 8 8 8 8 9 9 9
13 13 12 11 10 8 7 6 7 7 8 8 8 7 8 8 8 8 8 7 7 6 5 4 4 5 6 6 7 7 7 7 6 6 7 8 10 10 10 10 10 9 8 8 8 7 6 5 4 3 3 3 3 3 3 3 3 3 2 2 2 2 2 2 2 2 2 3 3 3 4 4 4 4 5 5 5 6 6 6 6 6 6 7 8 9 10
12 12 11 10 9 9 8 8 8 8 8 8 8 8 8 8 8 8 7 7 6 6 5 5 4 5 6 6 7 8 8 7 7 6 6 8 10 10 9 9 9 8 8 7 7 7 7 6 5 4 3 2 2 2 2 2 2 2 2 2 1 1 1 1 1 1 1 1 1 2 2 2 3 3 3 4 4 4 5 5 5 5 6 6 7 8 8
11 11 11 9 8 9 9 9 10 10 9 8 8 7 7 7 7 7 7 7 6 6 6 5 5 5 5 6 7 8 8 8 7 6 6 7 9 9 9 8 8 7 7 7 7 7 6 6 5 4 3 2 2 1 1 2 3 2 1 1 1 1 1 0 1 1 1 1 1 2 2 2 2 2 2 3 3 3 4 4 5 5 6 6 7 7 8
9 9 9 8 7 9 9 9 9 9 8 8 7 7 7 6 6 6 6 6 6 6 6 6 5 5 6 7 8 9 9 8 7 7 7 8 8 9 9 9 8 7 7 7 7 7 6 6 5 4 3 2 2 1 1 2 2 2 2 2 1 1 1 1 1 1 1 2 2 2 2 2 3 3 3 4 4 4 4 5 5 6 6 7 7 8 8
10 10 10 9 8 9 10 9 8 8 8 7 7 6 6 6 6 5 5 5 5 5 5 5 5 5 6 7 8 9 9 9 8 8 8 8 9 9 10 10 9 8 8 8 8 7 7 6 5 5 4 3 2 2 2 2 2 2 2 2 2 1 1 1 1 1 2 2 2 2 2 3 3 3 4 4 5 5 5 5 6 6 7 7 7 8 8
11 11 11 9 8 9 10 9 8 8 8 7 7 6 5 5 6 5 5 5 4 4 5 5 5 5 5 7 8 9 9 9 9 9 9 9 9 9 10 10 10 9 8 8 8 7 7 6 5 4 4 4 3 3 2 2 2 2 2 2 2 2 2 2 2 2 2 3 3 3 3 3 4 4 4 5 5 6 6 7 7 7 7 8 8 9 9
12 12 12 10 9 10 11 10 9 9 8 7 6 6 5 5 6 6 5 4 4 4 4 5 5 5 5 6 7 8 8 9 10 10 9 10 10 10 10 10 10 9 9 9 8 7 6 6 5 4 4 4 4 3 3 3 2 2 2 2 2 2 2 2 2 3 3 4 4 4 4 5 5 5 5 5 6 6 7 7 8 8 8 9 9 9 10
14 14 12 11 10 10 10 10 9 9 8 7 7 6 6 6 6 5 4 4 4 4 4 4 5 5 6 6 7 8 9 10 10 10 9 10 10 11 11 11 10 10 10 9 8 7 7 6 5 4 4 3 4 4 4 3 3 2 2 2 2 2 2 2 3 3 4 4 4 5 5 6 6 6 6 6 6 7 7 7 8 8 9 9 9 10 10
14 13 11 10 9 10 9 9 9 9 9 8 7 6 6 6 5 4 3 3 4 4 4 4 5 6 6 7 8 8 9 10 11 11 10 10 10 11 11 11 11 10 10 9 8 8 7 6 5 5 4 3 3 4 4 3 3 3 2 2 2 2 3 3 3 4 4 5 5 6 6 6 7 7 7 7 7 8 8 8 9 9 9 10 10 10 11
13 12 11 10 10 10 10 10 9 9 9 8 8 7 7 6 5 4 3 3 4 4 4 5 6 7 7 8 8 9 9 10 11 11 11 11 11 11 11 11 11 11 10 9 8 8 7 7 6 5 4 4 3 3 3 3 3 3 2 2 2 2 3 3 4 5 5 6 6 6 6 7 7 8 8 8 8 9 9 9 10 10 10 11 11 11 11
14 13 12 11 11 11 11 10 9 8 8 8 8 8 7 6 5 5 5 4 4 4 5 6 7 8 8 8 8 9 9 10 11 11 11 11 11 11 11 10 10 10 10 9 8 7 6 6 5 5 4 4 4 3 3 3 3 3 3 3 4 4 4 4 5 5 6 7 7 7 7 8 8 9 9 9 10 10 10 10 11 11 11 12 12 12 12
15 15 14 13 13 12 10 9 9 9 9 9 8 8 8 7 6 6 6 6 5 5 6 7 8 8 8 8 9 9 10 11 12 12 11 11 11 10 10 10 9 9 9 8 7 7 6 5 5 5 5 5 5 5 4 4 4 4 5 5 6 6 6 7 7 7 7 8 8 8 9 9 10 10 10 11 11 11 11 11 12 12 12 12 13 13 13
16 15 14 13 13 12 11 10 10 10 9 9 9 9 9 8 7 7 7 7 7 6 6 7 8 8 9 9 9 10 10 11 12 11 11 11 10 10 10 10 9 8 8 7 7 7 6 6 5 5 5 5 5 6 6 5 5 6 6 7 7 7 8 8 8 9 9 9 9 9 10 11 11 12 12 12 12 12 13 13 13 13 13 13 13 13 13
16 14 13 13 13 12 11 11 11 10 10 10 10 10 10 9 9 8 8 8 8 8 8 8 8 9 9 9 9 10 11 11 11 10 10 10 9 9 9 9 9 8 7 7 7 7 6 6 5 5 5 5 6 6 7 7 7 7 7 8 8 8 9 9 9 10 10 10 10 11 12 12 12 12 12 12 13 13 13 13 13 13 13 14 15 14 14
17 15 14 13 13 12 12 12 11 11 11 11 11 11 10 10 10 10 10 9 10 9 9 9 9 9 10 10 10 11 11 11 10 10 10 9 8 8 9 9 8 8 7 7 7 6 6 5 5 6 6 7 7 7 7 8 8 8 8 9 9 9 9 10 10 10 11 11 12 12 13 13 13 13 13 14 14 14 14 14 14 14 15 15 15 15 15
18 16 15 15 14 13 13 13 12 12 12 11 11 11 11 10 11 11 11 11 11 10 10 9 9 9 10 11 11 11 11 10 10 9 9 9 9 9 9 9 8 7 7 7 6 6 6 6 6 6 6 7 7 8 8 9 9 10 10 10 10 10 10 11 11 11 12 12 12 13 13 14 14 15 15 15 15 15 16 16 16 17 16 16 17 17 18
18 18 16 15 14 14 14 14 13 12 12 12 11 12 12 11 11 12 12 12 12 11 11 10 10 10 11 11 11 11 11 10 10 9 9 9 9 9 9 8 7 7 6 6 7 7 7 7 7 7 7 7 8 8 8 9 10 10 10 10 10 11 11 11 12 13 13 13 14 14 14 15 15 16 16 16 16 17 17 17 18 18 18 18 19 19 20
18 18 17 15 15 15 14 14 14 13 12 12 12 12 12 12 12 13 13 13 13 12 12 12 11 11 11 11 11 11 11 10 10 10 9 9 9 9 9 8 8 7 7 7 7 8 8 8 8 8 8 9 9 9 9 9 10 10 10 10 11 11 12 12 13 13 13 14 15 15 16 16 16 16 16 17 17 17 18 18 18 18 19 19 19 20 21
17 17 16 16 16 15 15 15 15 15 13 12 12 12 13 13 14 14 14 14 14 13 13 13 12 12 12 11 11 11 11 10 10 10 10 9 9 9 8 8 8 8 7 7 8 8 8 8 8 8 9 9 10 9 9 9 9 10 10 11 11 12 12 13 13 13 13 14 15 16 16 16 16 17 17 17 18 18 18 18 19 19 19 19 20 21 22
17 17 16 16 16 16 15 16 16 15 14 13 13 12 13 13 14 15 15 15 15 14 14 14 13 13 12 12 11 11 11 11 10 10 10 9 9 9 9 9 9 8 8 8 8 9 8 8 8 8 9 9 9 10 10 9 10 10 10 11 11 12 12 13 13 13 14 14 15 15 15 16 16 17 17 18 18 18 19 19 19 20 20 20 21 21 22
17 17 17 17 17 16 16 16 17 16 14 14 14 13 13 14 15 16 16 16 16 16 15 14 14 14 13 12 12 12 12 11 11 10 10 9 9 8 8 8 9 8 8 8 9 9 9 8 9 9 9 9 10 10 10 10 10 10 10 11 11 12 13 13 13 13 14 14 14 15 16 16 16 17 17 17 18 18 18 19 19 20 21 21 22 22 22
18 17 17 18 18 17 16 17 17 17 16 14 14 14 15 15 16 16 16 16 17 17 16 15 15 14 13 12 12 12 12 11 11 10 10 9 9 8 8 8 8 9 9 9 9 9 9 9 9 10 10 10 10 10 10 10 10 10 11 11 12 12 12 13 13 14 14 15 15 16 17 17 17 17 18 18 18 18 19 19 20 20 21 21 22 22 23
18 18 17 17 18 17 17 17 17 18 17 16 15 16 16 17 17 17 17 17 17 17 17 16 15 14 13 13 12 11 11 11 11 10 10 9 9 9 9 9 9 10 10 11 10 10 10 10 10 10 10 10 10 10 10 10 11 11 11 12 13 13 13 14 14 15 15 15 16 17 17 17 17 18 18 19 19 20 20 20 21 21 21 21 22 22 23
18 18 18 17 18 18 17 17 18 18 18 17 16 16 17 17 18 18 18 18 18 17 17 16 15 14 14 13 12 12 11 11 11 11 10 10 11 10 10 11 11 11 11 11 11 11 11 10 10 10 10 10 10 11 11 11 12 12 12 13 13 14 14 14 15 15 16 16 16 17 17 17 17 18 19 19 20 21 21 21 21 21 22 22 22 22 23
18 18 17 17 18 18 18 18 18 19 18 18 17 17 17 18 19 19 18 18 18 17 17 17 16 15 15 14 13 12 12 12 11 11 11 11 11 11 11 12 12 11 11 11 11 11 11 11 11 12 12 11 11 11 11 12 12 12 13 13 14 14 14 15 15 16 16 16 17 17 18 18 18 18 19 19 20 21 21 21 21 22 22 22 22 22 23
18 17 17 17 17 18 18 19 19 19 19 19 18 17 17 19 20 19 19 19 18 18 17 17 16 16 15 15 14 13 13 12 12 12 11 11 11 12 12 12 12 12 12 11 11 11 11 11 11 12 12 12 12 12 12 13 13 13 14 14 15 15 15 15 16 17 17 17 18 18 19 19 19 19 20 20 21 21 22 22 22 22 23 23 23 23 23
18 18 17 17 17 17 18 19 19 19 19 19 19 18 17 19 20 20 20 20 19 18 18 17 17 16 16 15 15 14 14 13 13 12 12 11 11 12 13 13 13 13 12 12 12 12 12 12 12 13 13 13 13 12 13 13 14 14 15 15 16 16 16 16 17 18 18 19 19 19 19 20 20 20 20 21 21 21 21 22 22 22 23 23 23 23 23
18 18 18 17 17 17 18 19 19 19 19 19 19 18 18 19 20 20 20 19 19 19 18 17 17 16 16 15 15 15 14 14 13 13 13 12 12 13 13 13 13 13 13 12 12 13 13 13 13 14 14 13 13 13 14 14 14 15 15 16 16 17 17 17 18 18 19 19 20 20 19 19 20 20 20 20 20 20 21 21 21 21 21 21 21 22 22
17 18 18 18 17 16 17 18 18 18 18 19 19 18 18 18 19 21 21 20 19 19 18 17 16 16 16 15 15 14 14 13 13 13 13 13 13 13 13 13 13 13 13 13 13 14 14 13 14 14 14 13 13 14 14 15 15 16 16 16 17 17 17 18 18 18 19 19 19 19 20 20 20 20 20 20 20 20 20 20 21 21 21 20 20 21 21
17 17 17 17 17 16 17 18 18 18 19 19 19 19 19 18 19 21 21 20 19 19 18 17 16 16 16 16 15 15 14 13 13 13 13 13 13 13 13 12 12 12 12 12 13 14 14 14 14 14 13 13 13 14 15 15 16 16 16 17 17 17 17 18 18 18 19 19 20 20 20 20 20 20 20 20 19 19 19 20 20 20 20 19 19 19 19
16 16 16 17 17 17 18 19 19 19 19 20 19 20 20 19 19 21 21 20 18 17 17 16 16 16 16 16 15 15 14 13 12 12 13 13 13 13 13 13 12 12 12 12 12 13 13 13 13 13 12 13 13 14 15 15 16 16 16 17 17 18 18 18 19 19 19 20 20 20 19 19 20 20 21 20 19 19 19 19 19 19 18 18 18 18 17
15 15 15 16 16 17 18 20 19 18 18 19 18 18 20 21 21 21 20 18 16 16 16 16 16 15 15 15 15 14 14 13 12 12 12 12 13 13 13 13 13 13 12 12 13 13 13 13 12 12 12 13 14 15 16 16 17 17 17 17 18 18 19 19 20 20 20 20 20 19 19 19 20 20 20 19 19 19 19 18 18 17 17 17 17 16 16
15 15 16 16 16 17 19 20 19 18 18 18 17 18 20 22 22 20 18 16 16 16 15 15 15 15 15 15 14 14 13 13 12 12 12 12 12 12 12 13 13 13 13 13 13 13 13 12 12 12 12 13 15 16 17 17 17 17 17 18 18 19 19 19 20 20 20 20 20 20 20 20 20 20 19 18 18 18 18 17 17 17 16 16 16 16 17
15 16 16 16 17 18 20 20 19 18 19 18 18 18 20 21 20 17 16 16 16 15 15 15 14 14 14 14 14 13 13 13 12 12 12 12 12 12 12 12 12 12 13 13 13 12 12 12 12 12 13 14 16 16 17 16 16 17 18 18 19 19 19 19 19 19 20 20 21 20 20 19 18 18 18 18 17 17 17 17 17 16 16 16 16 17 17
14 14 15 15 16 18 18 18 18 18 19 19 18 18 19 19 17 16 15 15 16 15 15 15 15 14 14 14 13 13 13 12 12 12 12 12 12 12 12 12 12 12 12 12 12 12 12 12 12 13 14 15 16 17 17 17 17 17 18 19 19 19 19 19 19 19 19 20 20 19 19 18 18 18 18 18 17 16 16 16 15 15 15 16 16 16 17
Wind_Direction
277 279 283 294 291 275 278 292 291 289 291 285 289 293 282 273 282 280 278 284 281 274 277 279 279 281 280 277 278 278 280 280 274 273 273 269 262 251 246 247 244 240 240 238 238 236 232 228 223 221 222 222 222 222 223 223 222 219 215 216 218 220 220 219 221 225 226 223 223 226 227 229 231 232 234 236 238 239 240 241 241 242 242 243 244 245 248
288 288 289 295 294 279 277 283 284 288 288 282 292 299 290 282 287 285 289 295 290 285 284 281 281 281 276 275 275 274 274 276 276 274 271 269 265 257 252 250 246 240 239 242 244 242 240 234 226 221 220 221 222 224 223 221 220 220 219 219 219 220 219 219 222 225 225 224 226 229 230 233 235 235 237 239 241 242 243 245 247 247 247 247 247 247 249
286 284 285 288 283 272 274 282 286 299 300 289 290 296 295 297 297 296 299 297 292 291 287 283 283 280 276 277 276 274 271 271 273 271 269 270 265 262 260 252 247 242 237 241 244 245 250 240 223 216 218 219 221 222 220 218 218 219 218 218 219 221 221 221 223 225 226 226 228 231 234 236 238 239 240 242 243 244 245 247 249 250 250 249 249 250 250
280 280 288 294 291 280 282 289 288 296 300 291 288 293 295 296 292 294 300 295 289 289 288 287 285 282 281 279 276 274 269 268 271 267 268 272 265 260 259 248 245 243 238 242 241 239 257 243 207 203 211 216 218 219 217 216 216 216 217 218 221 223 224 225 226 226 228 229 231 235 238 240 242 243 244 244 245 246 247 249 250 251 251 251 250 250 251
284 284 290 301 309 296 279 277 280 285 288 286 292 298 301 305 300 296 298 295 291 292 290 288 286 283 282 276 271 271 266 263 266 262 263 273 267 257 251 241 239 241 239 245 241 233 244 246 194 192 202 209 214 216 215 216 218 219 220 221 223 224 226 228 229 228 231 233 235 238 240 243 245 246 247 247 248 249 249 250 251 251 252 251 250 250 251
296 295 290 296 307 295 265 264 274 279 285 290 297 301 304 310 306 296 295 298 301 302 297 291 287 283 278 271 263 262 262 257 257 256 256 267 264 250 242 237 234 236 239 245 240 232 237 242 227 212 206 207 213 218 218 218 220 223 223 222 223 225 228 231 231 232 234 237 239 240 242 245 246 247 248 248 249 250 251 252 252 252 251 251 250 250 250
290 296 294 288 289 278 262 270 277 275 283 289 298 310 312 310 306 302 304 306 308 309 304 296 290 281 274 269 258 256 259 253 248 248 247 254 257 244 235 234 231 231 237 240 235 233 237 239 237 231 221 218 221 223 222 221 222 225 224 222 225 229 233 235 234 235 237 239 241 243 244 246 247 248 249 249 250 252 254 254 254 253 253 252 251 251 250
280 290 291 282 280 278 273 281 284 275 277 280 284 305 311 309 309 308 308 310 310 309 305 297 289 278 271 267 258 253 256 250 241 238 235 237 246 241 228 227 228 225 226 230 229 227 230 232 235 232 224 221 220 221 221 220 221 224 224 225 229 234 237 239 239 238 240 241 244 245 247 248 250 251 252 252 253 254 255 255 254 255 255 254 253 252 250
277 281 282 280 284 284 277 274 270 262 270 280 281 291 297 300 307 307 304 309 310 306 301 294 285 276 271 266 256 249 248 243 237 236 232 224 222 223 217 215 216 212 208 214 221 221 215 212 214 219 219 216 215 217 221 222 221 222 223 227 231 236 239 242 242 241 242 243 245 246 248 250 251 251 252 253 254 254 254 254 255 255 256 256 255 253 250
278 282 283 283 285 279 269 263 261 262 271 278 281 290 293 296 306 310 307 308 308 305 302 293 282 276 271 259 250 243 236 232 231 230 230 218 206 204 204 196 192 189 184 189 199 203 200 203 212 222 221 217 215 216 218 221 220 222 225 229 232 236 239 241 242 242 243 244 245 245 246 248 249 250 251 253 255 255 255 255 256 256 256 256 255 252 250
282 282 280 280 280 276 269 262 262 270 273 273 288 300 292 292 303 312 309 307 305 305 302 291 277 270 263 250 242 236 230 226 221 212 213 217 206 202 202 191 175 171 165 161 166 168 171 189 208 219 220 218 215 212 212 215 215 216 219 223 227 230 234 237 239 242 244 244 244 245 246 248 250 251 253 254 255 256 256 256 256 256 255 253 251 250 250
274 269 270 273 272 270 268 263 264 279 285 288 301 296 283 287 302 310 305 300 301 303 300 289 275 265 255 242 234 231 226 224 220 210 207 214 208 199 197 190 178 172 165 154 149 149 158 179 186 187 193 196 197 200 206 212 214 214 215 217 221 225 230 235 239 243 244 244 244 245 246 248 250 252 253 253 255 257 257 256 253 251 248 245 245 249 252
269 263 265 267 263 260 263 264 271 281 284 286 289 281 275 283 297 303 302 298 298 301 297 287 278 264 250 239 231 229 225 222 223 218 209 204 195 185 183 182 180 180 177 167 156 153 164 176 175 167 163 162 166 173 184 194 204 212 214 217 219 223 230 235 238 241 242 242 244 245 244 245 248 249 252 253 254 256 256 252 246 243 242 242 245 251 257
270 265 262 264 264 258 254 257 274 283 280 277 278 275 275 281 287 295 302 299 296 299 297 291 282 262 242 237 234 230 225 222 221 215 205 197 187 178 178 180 180 179 175 169 160 156 161 167 169 163 149 140 140 142 142 150 174 192 200 205 207 209 212 216 223 232 234 235 239 239 237 240 243 246 250 253 254 255 252 246 241 238 242 249 251 253 258
269 270 266 263 263 261 257 257 273 281 275 270 271 271 274 280 286 293 299 298 296 299 301 297 282 250 234 236 236 231 225 221 219 214 205 198 192 186 179 176 176 176 174 169 162 153 147 146 151 155 148 139 135 130 125 130 145 161 175 186 191 194 197 198 204 214 218 219 223 226 231 239 243 245 249 253 256 254 248 243 239 237 243 253 256 254 258
265 272 273 264 259 261 260 256 262 273 276 272 267 263 268 279 288 291 294 296 296 295 295 290 270 246 235 234 235 229 220 215 214 212 206 199 196 192 183 173 174 176 175 174 170 161 149 138 135 135 134 134 136 136 141 152 155 154 161 171 177 184 194 202 210 219 223 226 231 237 244 251 253 253 253 254 258 256 248 245 245 244 248 255 255 255 261
258 263 266 263 259 256 252 248 254 267 276 273 268 267 270 277 284 288 290 293 295 293 289 280 268 250 234 227 226 219 213 212 207 202 201 197 194 191 184 178 178 178 174 171 169 164 158 150 140 132 126 121 121 125 141 162 165 161 164 167 169 175 184 196 211 223 230 236 241 247 252 256 258 260 259 259 260 260 255 251 249 249 251 253 252 254 259
262 263 260 258 255 245 234 242 259 267 270 270 273 276 275 275 280 284 286 287 287 285 276 268 264 251 233 222 217 210 209 210 201 193 197 196 191 188 186 183 182 181 177 172 170 167 166 164 159 150 137 129 131 138 145 146 143 145 152 155 156 163 173 186 198 205 215 225 233 239 243 247 251 256 260 263 263 262 260 257 255 254 254 254 255 257 258
261 262 256 250 246 237 231 244 263 269 270 271 273 275 276 278 281 282 282 282 280 275 267 257 250 243 230 216 206 203 204 205 200 196 200 197 190 187 183 176 174 176 177 175 172 170 170 172 173 171 166 161 167 183 193 189 174 155 148 153 159 163 170 196 215 219 220 224 232 243 247 249 251 254 260 265 267 267 266 264 261 260 258 257 258 260 262
253 253 249 246 244 241 241 252 262 264 264 267 271 274 276 280 282 280 279 277 273 270 264 252 239 230 219 205 197 197 199 201 201 204 207 201 193 188 183 176 171 171 174 176 173 168 167 170 174 173 168 163 164 175 202 210 206 196 179 175 185 197 211 241 255 258 265 270 270 270 272 276 278 279 280 278 278 279 276 270 266 262 261 261 262 262 265
253 251 247 250 254 253 254 258 260 258 256 260 266 271 274 277 277 274 272 271 269 265 258 247 232 214 204 199 195 195 200 205 208 209 206 197 186 182 183 185 182 176 173 173 173 172 173 174 175 173 170 165 159 143 141 168 183 188 184 170 164 192 240 272 279 274 285 294 290 285 290 295 295 296 298 295 292 290 286 281 277 272 268 266 265 265 266
249 247 248 254 256 254 255 253 251 253 255 257 262 267 270 270 264 259 261 266 268 262 246 235 223 206 199 199 198 199 204 208 207 201 192 184 179 178 181 183 183 179 175 172 170 173 177 179 180 184 188 189 184 174 164 166 175 184 188 184 185 213 247 275 280 273 276 284 288 291 298 303 303 303 303 302 300 297 293 291 289 286 281 277 275 273 273
243 244 247 249 248 249 251 250 250 255 258 255 256 261 263 259 254 251 252 256 259 251 235 224 214 202 195 193 195 198 201 201 197 189 183 180 180 183 185 185 183 180 178 176 174 175 176 178 180 185 190 194 197 199 201 204 209 213 211 212 223 238 252 264 269 273 275 276 279 287 296 305 308 305 304 306 308 307 303 299 295 293 290 288 287 286 283
245 249 248 247 246 246 248 248 250 253 253 250 251 255 254 251 251 252 248 243 241 238 229 219 206 191 184 186 190 192 193 191 188 186 184 183 182 184 188 189 188 185 182 180 180 181 180 180 180 180 185 197 205 209 213 221 229 233 231 228 230 241 257 265 268 275 280 280 281 284 290 298 304 305 304 304 307 311 311 307 304 302 299 296 295 294 291
246 248 247 247 247 244 245 249 250 248 247 247 249 248 245 246 252 256 249 233 222 216 214 212 200 183 176 179 183 183 182 182 181 182 183 184 186 188 189 188 188 189 187 185 186 189 189 188 187 189 198 213 218 218 221 227 234 240 242 234 232 238 248 260 273 281 284 285 284 282 283 286 290 294 298 298 299 304 307 306 305 307 307 303 299 296 295
242 241 239 242 244 242 244 248 245 241 241 242 243 242 239 240 248 252 235 215 206 197 193 195 188 175 169 170 173 175 175 176 178 180 181 183 187 189 188 187 187 187 186 187 190 192 192 192 193 196 203 214 222 226 230 233 239 246 244 233 236 244 247 258 278 288 291 293 292 287 286 287 287 287 289 290 291 294 296 298 300 303 306 305 302 298 296
237 233 231 238 243 241 241 241 238 236 237 235 234 233 229 226 230 228 216 208 202 191 181 175 169 165 165 166 167 171 173 174 177 180 180 182 184 183 182 183 184 184 183 183 184 185 187 191 194 196 198 204 213 220 226 232 239 244 239 236 247 258 260 269 282 289 294 300 300 293 290 292 292 289 288 288 287 286 286 289 293 295 297 299 298 296 295
234 233 234 240 239 234 234 237 235 233 232 228 225 223 220 218 219 218 215 211 201 183 170 166 166 167 168 167 167 170 171 173 176 178 177 177 177 176 178 180 181 181 181 179 180 185 191 197 201 205 210 218 221 218 222 234 240 242 245 252 260 266 272 278 284 289 294 298 299 294 292 294 294 293 291 291 290 287 284 284 287 290 290 291 293 293 293
233 235 240 243 239 231 229 232 232 230 226 222 219 218 215 212 212 212 211 207 199 184 171 169 173 175 172 169 169 169 169 170 174 176 177 177 177 179 183 184 182 181 182 183 189 198 206 210 214 218 223 228 230 227 231 242 247 249 256 263 268 274 279 281 282 287 292 294 294 293 293 296 296 295 295 295 294 291 288 284 284 286 287 286 287 289 290
233 234 237 238 234 227 224 226 226 224 221 218 218 218 215 210 208 209 208 205 200 192 181 175 176 177 175 174 174 172 171 171 173 176 178 181 184 185 186 186 187 190 195 200 206 211 214 217 220 226 231 236 237 236 238 243 248 254 260 267 272 278 283 284 284 285 286 288 291 292 294 297 298 296 295 296 296 295 292 287 283 284 285 285 284 283 284
230 231 230 229 225 222 222 221 221 222 221 218 217 217 216 211 207 206 206 204 200 193 184 179 180 181 180 179 177 174 174 176 178 179 180 182 187 191 193 196 200 202 207 212 213 212 214 216 219 226 234 241 244 243 242 246 254 259 263 269 275 280 283 286 286 285 284 286 290 293 295 298 299 297 296 296 298 298 297 294 290 288 289 287 283 281 281
223 224 223 221 218 218 219 219 220 222 221 218 216 216 217 213 208 205 205 204 200 194 189 187 188 188 185 183 180 178 178 179 181 184 185 188 191 194 196 200 203 204 205 208 209 209 214 219 223 229 236 242 248 250 249 253 260 265 266 269 275 280 284 286 286 286 287 290 292 295 296 296 296 297 296 296 297 297 297 297 295 294 293 290 285 282 283
218 217 219 220 219 219 219 220 220 220 219 218 218 218 217 215 210 207 205 203 200 198 196 195 193 189 186 185 184 183 181 181 184 188 191 193 195 196 198 201 203 203 204 206 209 213 219 224 231 239 243 247 251 257 258 259 263 268 270 270 273 279 285 286 285 287 291 293 293 295 297 296 296 296 296 296 296 295 295 295 295 294 293 290 287 285 285
219 218 219 222 223 222 220 219 218 218 219 220 219 217 216 213 210 207 205 202 202 202 200 198 194 189 186 186 186 185 186 188 191 194 195 195 197 200 204 207 208 209 211 216 222 229 235 240 245 252 256 256 259 264 267 265 266 270 273 273 276 281 285 287 287 288 291 292 292 294 296 296 295 295 294 295 295 295 294 294 294 293 291 289 286 286 285
221 221 222 223 224 223 222 220 218 218 219 221 220 218 215 211 207 205 204 203 203 203 201 199 195 190 186 186 189 191 194 196 196 195 195 196 199 202 207 212 215 216 220 227 233 239 245 250 254 257 259 260 263 268 271 269 268 270 273 276 281 285 286 287 289 290 291 292 293 293 294 295 295 296 296 296 296 295 294 294 294 294 294 292 289 287 286
220 223 224 223 221 221 223 222 219 217 218 220 218 215 213 211 208 206 204 204 203 202 200 199 197 193 190 191 193 196 198 198 197 196 198 200 203 206 210 215 219 221 225 232 237 242 246 250 254 255 256 258 264 271 273 270 269 272 277 281 285 286 286 287 289 290 292 293 293 293 295 296 297 296 296 295 295 296 295 295 295 296 297 296 294 291 289
221 223 224 222 220 221 222 219 215 215 217 217 213 211 212 212 209 206 204 204 204 202 201 200 199 197 197 197 197 196 195 196 197 198 199 202 207 212 216 220 224 226 228 233 239 244 249 252 255 257 258 261 267 273 275 273 272 276 281 284 285 286 287 289 291 291 292 294 294 295 296 297 298 297 297 297 297 298 298 298 297 297 297 297 297 296 293
221 223 224 222 220 221 221 217 216 217 218 215 213 213 214 212 208 205 205 205 203 202 201 201 201 200 201 201 199 196 195 196 199 201 204 209 214 218 223 227 229 228 228 232 239 245 251 255 259 261 262 263 267 272 276 275 274 278 282 285 286 288 289 291 293 294 295 296 297 297 297 298 298 299 300 301 300 300 301 301 300 300 299 298 298 298 297
221 223 223 222 222 222 221 219 218 218 216 215 216 216 215 211 207 205 204 203 202 201 201 201 202 204 205 205 202 199 198 199 203 207 212 218 223 225 229 233 233 230 231 236 242 248 252 257 262 262 262 264 268 272 274 275 277 281 285 286 288 291 292 292 295 297 298 298 299 299 298 298 297 298 299 300 301 301 301 302 302 302 300 299 298 298 298
223 223 222 223 223 222 220 219 218 217 216 217 218 216 214 211 208 206 204 202 201 201 201 202 205 208 208 205 203 202 202 205 210 215 220 225 227 229 233 235 236 237 239 242 247 252 256 261 264 263 263 268 272 272 272 275 279 284 287 288 289 291 293 294 297 299 299 298 299 300 301 300 299 298 299 300 301 301 302 302 303 303 302 300 299 299 299
223 222 221 222 223 222 221 221 219 216 215 217 217 215 213 210 207 206 205 203 202 203 203 203 205 208 208 205 204 205 208 212 217 222 227 229 230 232 236 239 240 242 244 248 252 256 259 262 264 265 269 274 275 271 271 277 282 286 288 289 290 292 294 295 298 300 300 299 299 300 301 301 302 302 301 301 302 302 302 302 302 302 302 302 301 301 301
222 220 220 222 223 223 222 221 218 215 215 216 216 217 215 211 207 206 205 204 204 205 206 205 206 207 208 208 209 211 214 218 222 226 232 236 236 236 237 240 242 244 246 251 257 261 262 264 266 269 273 275 274 272 275 280 284 287 288 289 292 294 295 296 298 300 300 299 299 300 301 302 303 303 302 301 301 302 302 301 301 302 301 301 301 301 302
221 221 221 223 223 223 223 221 217 214 214 216 217 218 217 212 208 206 205 204 204 205 206 206 207 207 208 210 213 216 219 222 226 231 237 243 244 242 240 240 243 247 251 255 261 264 265 267 269 273 276 275 272 273 278 283 285 287 288 288 290 294 295 295 297 299 300 300 300 300 301 301 302 302 302 302 301 301 301 301 301 301 301 301 300 299 299
220 220 222 223 223 223 223 220 216 213 214 215 217 217 215 211 209 207 205 205 206 207 207 208 208 208 209 212 215 219 223 226 229 234 240 244 246 245 243 243 247 251 255 260 263 265 266 268 270 275 279 276 272 274 281 285 286 286 286 286 289 293 295 296 297 298 299 300 300 300 300 301 302 302 302 302 302 302 302 303 302 302 301 301 300 299 298
220 221 222 222 223 225 224 220 218 217 215 213 214 215 214 211 209 208 206 206 207 207 206 206 207 209 211 215 219 223 227 230 234 238 241 244 246 246 246 248 253 256 259 262 265 266 267 268 271 276 279 276 271 275 283 286 286 286 287 288 290 292 294 296 297 298 298 299 299 298 299 301 301 301 301 302 303 304 305 305 305 305 304 304 303 302 300
220 221 221 222 224 225 221 216 215 215 212 209 211 214 215 213 211 209 206 204 204 204 205 206 208 211 214 218 221 224 229 234 239 243 246 247 248 248 249 253 258 259 260 262 264 266 268 269 272 277 278 274 272 277 284 286 286 287 288 289 291 293 294 296 297 298 298 299 298 297 297 298 299 300 300 300 301 303 304 305 305 305 305 304 305 305 304
219 220 221 222 223 222 216 212 210 210 208 208 210 213 215 215 213 209 204 201 202 205 207 210 212 214 217 220 223 226 230 235 241 246 249 249 248 248 250 254 258 260 261 264 266 268 270 272 274 276 276 273 274 280 284 286 288 289 288 289 291 294 295 297 297 296 296 297 297 297 296 296 297 299 300 299 299 301 303 305 306 305 303 302 304 306 306
220 221 222 222 222 220 216 212 209 208 208 209 211 212 212 211 207 202 198 197 200 205 209 212 214 216 219 222 225 229 233 236 240 245 248 249 248 249 252 255 256 258 263 267 269 270 273 274 274 274 274 273 276 282 285 287 289 290 289 289 290 292 294 295 295 294 295 297 297 297 296 295 296 299 300 299 299 300 302 305 307 306 303 301 303 305 305
220 220 220 221 222 220 215 210 208 208 207 207 207 207 205 201 197 195 196 199 203 207 210 212 216 219 221 224 227 231 235 239 242 245 248 250 251 251 252 254 255 258 263 268 270 272 274 274 273 273 274 275 279 284 287 288 288 289 290 291 291 291 293 294 294 293 294 296 297 297 296 296 298 300 300 299 300 301 302 302 305 306 305 303 304 304 304
221 220 220 222 223 218 211 206 205 205 203 201 199 197 195 193 193 197 202 205 207 209 211 214 218 221 223 225 230 234 237 241 243 245 247 251 253 254 255 256 257 260 265 268 271 273 274 273 272 273 276 281 285 289 290 289 289 291 293 294 294 293 294 295 296 295 294 293 294 295 297 298 299 300 299 298 300 302 302 301 303 305 306 305 305 305 305
222 222 222 221 216 209 204 203 203 202 199 195 192 190 190 193 197 202 206 206 207 209 213 216 221 224 225 228 232 237 240 242 243 244 247 251 255 256 257 257 257 260 265 270 273 275 274 272 272 275 281 287 291 293 291 290 291 292 294 295 295 295 294 295 295 295 294 293 294 295 296 296 297 298 298 298 299 302 303 302 303 303 304 305 306 306 307
218 215 211 206 201 197 198 200 200 197 193 191 190 190 193 197 201 206 208 208 210 212 215 218 223 226 228 231 234 238 240 241 242 244 247 251 255 258 259 259 259 261 266 272 276 277 274 271 273 279 285 290 293 294 292 292 293 294 294 295 296 296 295 295 295 295 294 294 295 296 294 293 293 296 297 297 298 301 303 304 304 304 304 306 307 307 308